KQA448 HKJK-HRYR

Flight info

Callsign KQA448
Flight time 1h 2m
Altitude 38000
Route APLOG2B APLOG UL442 BOSAD BOSAD2A
Aircraft E190/M-SDE3GILORVW/S

Departure

Time 2026-04-20 02:23
Airport Jomo Kenyatta International Airport (HKJK)

Arrival

Time 2026-04-20 03:25
Airport Kigali International Airport (HRYR)
Time Latitude Longitude Altitude Speed Heading
2026-04-20 02:04 -1.33091 36.92141 5323 ft 0 kts 278°
2026-04-20 02:15 -1.33093 36.92152 5315 ft 4 kts 278°
2026-04-20 02:15 -1.33096 36.92173 5318 ft 3 kts 278°
2026-04-20 02:15 -1.33100 36.92199 5317 ft 4 kts 289°
2026-04-20 02:15 -1.33113 36.92221 5315 ft 4 kts 333°
2026-04-20 02:16 -1.33135 36.92228 5320 ft 3 kts 346°
2026-04-20 02:16 -1.33139 36.92229 5319 ft 0 kts 346°
2026-04-20 02:17 -1.33138 36.92229 5319 ft 1 kts 346°
2026-04-20 02:18 -1.33121 36.92225 5316 ft 5 kts 346°
2026-04-20 02:18 -1.33077 36.92218 5318 ft 8 kts 353°
2026-04-20 02:18 -1.33009 36.92220 5323 ft 11 kts
2026-04-20 02:18 -1.32926 36.92246 5318 ft 14 kts 26°
2026-04-20 02:19 -1.32869 36.92257 5316 ft 9 kts 340°
2026-04-20 02:19 -1.32812 36.92217 5322 ft 11 kts 323°
2026-04-20 02:19 -1.32789 36.92155 5326 ft 10 kts 250°
2026-04-20 02:19 -1.32831 36.92095 5318 ft 12 kts 233°
2026-04-20 02:20 -1.32885 36.92023 5327 ft 14 kts 234°
2026-04-20 02:20 -1.32947 36.91937 5332 ft 16 kts 234°
2026-04-20 02:20 -1.33001 36.91850 5334 ft 11 kts 272°
2026-04-20 02:20 -1.32983 36.91812 5337 ft 8 kts 314°
2026-04-20 02:21 -1.32876 36.91734 5338 ft 13 kts 324°
2026-04-20 02:21 -1.32795 36.91675 5337 ft 16 kts 324°
2026-04-20 02:21 -1.32742 36.91660 5335 ft 8 kts 34°
2026-04-20 02:22 -1.32696 36.91721 5332 ft 14 kts 54°
2026-04-20 02:22 -1.32565 36.91903 5318 ft 60 kts 53°
2026-04-20 02:22 -1.32203 36.92401 5320 ft 115 kts 54°
2026-04-20 02:22 -1.31637 36.93183 5325 ft 159 kts 54°
2026-04-20 02:23 -1.30957 36.94135 5653 ft 178 kts 54°
2026-04-20 02:23 -1.30202 36.95179 6258 ft 191 kts 53°
2026-04-20 02:23 -1.29350 36.96308 6774 ft 210 kts 52°
2026-04-20 02:23 -1.28412 36.97581 6985 ft 248 kts 54°
2026-04-20 02:24 -1.27397 36.99006 7681 ft 255 kts 54°
2026-04-20 02:24 -1.26295 37.00422 8404 ft 269 kts 44°
2026-04-20 02:24 -1.24585 37.01299 8927 ft 288 kts 11°
2026-04-20 02:24 -1.22568 37.01204 9769 ft 296 kts 347°
2026-04-20 02:25 -1.20692 37.00295 10454 ft 311 kts 324°
2026-04-20 02:25 -1.19295 36.98578 10838 ft 333 kts 295°
2026-04-20 02:25 -1.18844 36.96286 11455 ft 341 kts 270°
2026-04-20 02:25 -1.19036 36.93913 12193 ft 345 kts 262°
2026-04-20 02:26 -1.19394 36.91520 12899 ft 350 kts 261°
2026-04-20 02:26 -1.19705 36.89083 13616 ft 355 kts 263°
2026-04-20 02:26 -1.19930 36.86614 14359 ft 359 kts 265°
2026-04-20 02:26 -1.20121 36.84109 15062 ft 362 kts 265°
2026-04-20 02:27 -1.20311 36.81593 15768 ft 366 kts 265°
2026-04-20 02:27 -1.20517 36.79044 16458 ft 369 kts 265°
2026-04-20 02:27 -1.20738 36.76475 17091 ft 373 kts 264°
2026-04-20 02:27 -1.20967 36.73886 17702 ft 376 kts 264°
2026-04-20 02:28 -1.21216 36.71299 18266 ft 381 kts 263°
2026-04-20 02:28 -1.21503 36.68657 18790 ft 384 kts 263°
2026-04-20 02:28 -1.21795 36.65996 19287 ft 387 kts 263°
2026-04-20 02:28 -1.22085 36.63308 19773 ft 389 kts 263°
2026-04-20 02:29 -1.22382 36.60597 20249 ft 392 kts 263°
2026-04-20 02:29 -1.22680 36.57879 20722 ft 395 kts 263°
2026-04-20 02:29 -1.22992 36.55144 21179 ft 397 kts 263°
2026-04-20 02:29 -1.23316 36.52433 21627 ft 399 kts 262°
2026-04-20 02:30 -1.23664 36.49670 22065 ft 401 kts 262°
2026-04-20 02:30 -1.24016 36.46896 22521 ft 403 kts 262°
2026-04-20 02:30 -1.24368 36.44111 22927 ft 406 kts 262°
2026-04-20 02:30 -1.24736 36.41305 23346 ft 408 kts 261°
2026-04-20 02:31 -1.25121 36.38488 23730 ft 410 kts 261°
2026-04-20 02:31 -1.25511 36.35661 24052 ft 412 kts 261°
2026-04-20 02:31 -1.25915 36.32822 24369 ft 414 kts 261°
2026-04-20 02:31 -1.26324 36.29966 24680 ft 415 kts 261°
2026-04-20 02:32 -1.26740 36.27100 24977 ft 417 kts 261°
2026-04-20 02:32 -1.27160 36.24222 25268 ft 419 kts 261°
2026-04-20 02:32 -1.27595 36.21322 25496 ft 423 kts 260°
2026-04-20 02:32 -1.28044 36.18414 25792 ft 425 kts 261°
2026-04-20 02:33 -1.28483 36.15524 26084 ft 426 kts 261°
2026-04-20 02:33 -1.28936 36.12559 26381 ft 427 kts 260°
2026-04-20 02:33 -1.29384 36.09657 26676 ft 428 kts 260°
2026-04-20 02:33 -1.29847 36.06712 26955 ft 430 kts 260°
2026-04-20 02:34 -1.30318 36.03756 27235 ft 431 kts 260°
2026-04-20 02:34 -1.30792 36.00791 27508 ft 433 kts 260°
2026-04-20 02:34 -1.31273 35.97811 27769 ft 434 kts 260°
2026-04-20 02:34 -1.31759 35.94825 28036 ft 436 kts 260°
2026-04-20 02:35 -1.32251 35.91833 28285 ft 438 kts 260°
2026-04-20 02:35 -1.32750 35.88826 28533 ft 439 kts 260°
2026-04-20 02:35 -1.33254 35.85810 28784 ft 441 kts 260°
2026-04-20 02:35 -1.33762 35.82783 29027 ft 442 kts 260°
2026-04-20 02:36 -1.34275 35.79744 29266 ft 443 kts 260°
2026-04-20 02:36 -1.34793 35.76703 29490 ft 445 kts 259°
2026-04-20 02:36 -1.35311 35.73696 29770 ft 444 kts 259°
2026-04-20 02:36 -1.35827 35.70652 30031 ft 445 kts 260°
2026-04-20 02:37 -1.36347 35.67603 30249 ft 445 kts 259°
2026-04-20 02:37 -1.37433 35.61479 30526 ft 449 kts 259°
2026-04-20 02:37 -1.37971 35.58407 30761 ft 449 kts 259°
2026-04-20 02:38 -1.38516 35.55324 30886 ft 451 kts 259°
2026-04-20 02:38 -1.39069 35.52235 31044 ft 452 kts 259°
2026-04-20 02:38 -1.39622 35.49139 31247 ft 452 kts 259°
2026-04-20 02:38 -1.40173 35.46039 31370 ft 454 kts 259°
2026-04-20 02:39 -1.40739 35.42928 31459 ft 457 kts 259°
2026-04-20 02:39 -1.41310 35.39801 31656 ft 457 kts 259°
2026-04-20 02:39 -1.41873 35.36676 31830 ft 458 kts 259°
2026-04-20 02:39 -1.42444 35.33540 31940 ft 460 kts 259°
2026-04-20 02:40 -1.43025 35.30389 32082 ft 461 kts 259°
2026-04-20 02:40 -1.43604 35.27240 32276 ft 460 kts 259°
2026-04-20 02:40 -1.44173 35.24128 32420 ft 461 kts 259°
2026-04-20 02:40 -1.44742 35.21038 32629 ft 460 kts 259°
2026-04-20 02:41 -1.45320 35.17897 32840 ft 460 kts 259°
2026-04-20 02:41 -1.45902 35.14751 33043 ft 459 kts 259°
2026-04-20 02:41 -1.46486 35.11617 33236 ft 459 kts 259°
2026-04-20 02:41 -1.47073 35.08480 33437 ft 458 kts 259°
2026-04-20 02:42 -1.47661 35.05347 33637 ft 458 kts 259°
2026-04-20 02:42 -1.48251 35.02216 33818 ft 458 kts 259°
2026-04-20 02:42 -1.48843 34.99086 34006 ft 458 kts 259°
2026-04-20 02:42 -1.49432 34.95988 34127 ft 458 kts 258°
2026-04-20 02:43 -1.50027 34.92861 34228 ft 460 kts 259°
2026-04-20 02:43 -1.50775 34.86492 34479 ft 461 kts 264°
2026-04-20 02:43 -1.51073 34.83322 34792 ft 456 kts 264°
2026-04-20 02:44 -1.51377 34.80164 34939 ft 456 kts 264°
2026-04-20 02:44 -1.51999 34.73843 35272 ft 454 kts 264°
2026-04-20 02:44 -1.52307 34.70738 35458 ft 454 kts 263°
2026-04-20 02:45 -1.52619 34.67600 35588 ft 454 kts 263°
2026-04-20 02:45 -1.52933 34.64449 35717 ft 454 kts 263°
2026-04-20 02:45 -1.53244 34.61318 35971 ft 451 kts 264°
2026-04-20 02:45 -1.53551 34.58210 36172 ft 450 kts 263°
2026-04-20 02:46 -1.53860 34.55101 36324 ft 449 kts 263°
2026-04-20 02:46 -1.54173 34.51986 36481 ft 449 kts 263°
2026-04-20 02:46 -1.54483 34.48889 36739 ft 446 kts 263°
2026-04-20 02:46 -1.54789 34.45812 36952 ft 444 kts 263°
2026-04-20 02:47 -1.55097 34.42740 37116 ft 444 kts 263°
2026-04-20 02:47 -1.55404 34.39675 37289 ft 443 kts 263°
2026-04-20 02:47 -1.55709 34.36617 37486 ft 441 kts 263°
2026-04-20 02:47 -1.56013 34.33567 37646 ft 441 kts 263°
2026-04-20 02:48 -1.56318 34.30520 37791 ft 440 kts 263°
2026-04-20 02:48 -1.56616 34.27532 38142 ft 435 kts 263°
2026-04-20 02:48 -1.56918 34.24505 38105 ft 439 kts 263°
2026-04-20 02:49 -1.57526 34.18368 37942 ft 449 kts 263°
2026-04-20 02:49 -1.58142 34.12109 37970 ft 455 kts 263°
2026-04-20 02:50 -1.58767 34.05777 37977 ft 460 kts 263°
2026-04-20 02:50 -1.59395 33.99393 37985 ft 462 kts 263°
2026-04-20 02:51 -1.60021 33.92992 38001 ft 461 kts 263°
2026-04-20 02:51 -1.60645 33.86622 38007 ft 460 kts 263°
2026-04-20 02:52 -1.61267 33.80253 38014 ft 461 kts 263°
2026-04-20 02:52 -1.61886 33.73921 37932 ft 461 kts 263°
2026-04-20 02:53 -1.62510 33.67543 37919 ft 461 kts 263°
2026-04-20 02:53 -1.63132 33.61181 37920 ft 459 kts 263°
2026-04-20 02:54 -1.63753 33.54825 37927 ft 459 kts 263°
2026-04-20 02:54 -1.64370 33.48472 37928 ft 459 kts 263°
2026-04-20 02:55 -1.64984 33.42120 37920 ft 459 kts 263°
2026-04-20 02:55 -1.65599 33.35770 37913 ft 459 kts 263°
2026-04-20 02:56 -1.66214 33.29410 37922 ft 459 kts 263°
2026-04-20 02:56 -1.66826 33.23091 37918 ft 459 kts 263°
2026-04-20 02:57 -1.67443 33.16696 37918 ft 459 kts 263°
2026-04-20 02:57 -1.68058 33.10352 37912 ft 458 kts 263°
2026-04-20 02:58 -1.68665 33.04051 37912 ft 458 kts 263°
2026-04-20 02:58 -1.69279 32.97711 37912 ft 458 kts 263°
2026-04-20 02:59 -1.69889 32.91363 37910 ft 458 kts 263°
2026-04-20 02:59 -1.70502 32.85029 37908 ft 458 kts 263°
2026-04-20 03:00 -1.71111 32.78702 37914 ft 457 kts 263°
2026-04-20 03:00 -1.71722 32.72377 37914 ft 458 kts 263°
2026-04-20 03:01 -1.72328 32.66083 37909 ft 457 kts 263°
2026-04-20 03:01 -1.72947 32.59759 37908 ft 458 kts 263°
2026-04-20 03:02 -1.73587 32.53445 37908 ft 455 kts 263°
2026-04-20 03:02 -1.74222 32.47135 37910 ft 457 kts 263°
2026-04-20 03:03 -1.74858 32.40816 37907 ft 456 kts 263°
2026-04-20 03:03 -1.75490 32.34502 37914 ft 457 kts 263°
2026-04-20 03:04 -1.76127 32.28174 37913 ft 457 kts 263°
2026-04-20 03:04 -1.76760 32.21852 37912 ft 457 kts 263°
2026-04-20 03:05 -1.77391 32.15575 37916 ft 457 kts 263°
2026-04-20 03:05 -1.78024 32.09250 37915 ft 457 kts 263°
2026-04-20 03:06 -1.78660 32.02914 37922 ft 459 kts 263°
2026-04-20 03:06 -1.79295 31.96556 37921 ft 460 kts 263°
2026-04-20 03:07 -1.79933 31.90196 37936 ft 460 kts 263°
2026-04-20 03:07 -1.80567 31.83854 37417 ft 449 kts 263°
2026-04-20 03:07 -1.80873 31.80793 37031 ft 439 kts 263°
2026-04-20 03:08 -1.81173 31.77791 36414 ft 436 kts 263°
2026-04-20 03:08 -1.81472 31.74794 35843 ft 432 kts 263°
2026-04-20 03:08 -1.81771 31.71820 35296 ft 428 kts 263°
2026-04-20 03:08 -1.82065 31.68870 34709 ft 425 kts 263°
2026-04-20 03:09 -1.82359 31.65940 34172 ft 422 kts 263°
2026-04-20 03:09 -1.82650 31.63025 33564 ft 420 kts 264°
2026-04-20 03:09 -1.82940 31.60131 33080 ft 416 kts 264°
2026-04-20 03:09 -1.83228 31.57251 32492 ft 419 kts 264°
2026-04-20 03:10 -1.83520 31.54335 31968 ft 425 kts 264°
2026-04-20 03:10 -1.83816 31.51367 31390 ft 431 kts 264°
2026-04-20 03:10 -1.84013 31.49389 31021 ft 433 kts 264°
2026-04-20 03:10 -1.84313 31.46378 30422 ft 436 kts 264°
2026-04-20 03:11 -1.84617 31.43350 29819 ft 437 kts 264°
2026-04-20 03:11 -1.84918 31.40330 29307 ft 436 kts 264°
2026-04-20 03:11 -1.85219 31.37307 28690 ft 439 kts 264°
2026-04-20 03:11 -1.85523 31.34265 28128 ft 441 kts 264°
2026-04-20 03:12 -1.85927 31.30216 27347 ft 441 kts 264°
2026-04-20 03:12 -1.86133 31.28154 26953 ft 440 kts 264°
2026-04-20 03:12 -1.86435 31.25123 26377 ft 436 kts 264°
2026-04-20 03:12 -1.86731 31.22156 25810 ft 432 kts 264°
2026-04-20 03:13 -1.87028 31.19180 25242 ft 428 kts 264°
2026-04-20 03:13 -1.87323 31.16229 24683 ft 425 kts 264°
2026-04-20 03:13 -1.87614 31.13298 24117 ft 422 kts 264°
2026-04-20 03:13 -1.87899 31.10438 23558 ft 419 kts 264°
2026-04-20 03:14 -1.88188 31.07547 23016 ft 414 kts 264°
2026-04-20 03:14 -1.88471 31.04697 22445 ft 411 kts 264°
2026-04-20 03:14 -1.88754 31.01858 21934 ft 409 kts 264°
2026-04-20 03:14 -1.89036 30.99027 21379 ft 408 kts 264°
2026-04-20 03:15 -1.89317 30.96215 20854 ft 405 kts 264°
2026-04-20 03:15 -1.89595 30.93418 20323 ft 403 kts 264°
2026-04-20 03:15 -1.89871 30.90644 19787 ft 400 kts 264°
2026-04-20 03:15 -1.90145 30.87888 19262 ft 397 kts 264°
2026-04-20 03:16 -1.90414 30.85187 18735 ft 394 kts 264°
2026-04-20 03:16 -1.90684 30.82468 18191 ft 392 kts 264°
2026-04-20 03:16 -1.91114 30.79796 17707 ft 386 kts 255°
2026-04-20 03:16 -1.91908 30.77246 17187 ft 384 kts 250°
2026-04-20 03:17 -1.92755 30.74727 16680 ft 381 kts 251°
2026-04-20 03:17 -1.93546 30.72210 16187 ft 378 kts 252°
2026-04-20 03:17 -1.94298 30.69699 15690 ft 375 kts 253°
2026-04-20 03:17 -1.95028 30.67203 15196 ft 372 kts 253°
2026-04-20 03:18 -1.95745 30.64731 14696 ft 369 kts 253°
2026-04-20 03:18 -1.96455 30.62280 14219 ft 365 kts 253°
2026-04-20 03:18 -1.97156 30.59853 13724 ft 361 kts 253°
2026-04-20 03:18 -1.97849 30.57462 13282 ft 353 kts 253°
2026-04-20 03:19 -1.98526 30.55120 12787 ft 348 kts 253°
2026-04-20 03:19 -1.99195 30.52814 12343 ft 343 kts 253°
2026-04-20 03:19 -1.99856 30.50536 11886 ft 338 kts 253°
2026-04-20 03:19 -2.00513 30.48264 11285 ft 340 kts 253°
2026-04-20 03:20 -2.01162 30.46020 10885 ft 334 kts 253°
2026-04-20 03:20 -2.01787 30.43819 10404 ft 324 kts 256°
2026-04-20 03:20 -2.01890 30.41638 10021 ft 314 kts 276°
2026-04-20 03:20 -2.01421 30.39547 9621 ft 303 kts 288°
2026-04-20 03:21 -2.00890 30.37602 9313 ft 276 kts 280°
2026-04-20 03:21 -2.00667 30.35783 9018 ft 253 kts 276°
2026-04-20 03:21 -2.00402 30.34105 8692 ft 237 kts 281°
2026-04-20 03:21 -2.00077 30.32529 8371 ft 226 kts 280°
2026-04-20 03:22 -1.99827 30.31017 8072 ft 216 kts 278°
2026-04-20 03:22 -1.99589 30.29577 7970 ft 203 kts 279°
2026-04-20 03:22 -1.99338 30.28169 8026 ft 211 kts 279°
2026-04-20 03:22 -1.99078 30.26694 7750 ft 217 kts 279°
2026-04-20 03:23 -1.98822 30.25217 7406 ft 218 kts 278°
2026-04-20 03:23 -1.98562 30.23720 6937 ft 218 kts 278°
2026-04-20 03:23 -1.98305 30.22235 6368 ft 219 kts 278°
2026-04-20 03:23 -1.98048 30.20750 6173 ft 200 kts 278°
2026-04-20 03:24 -1.97812 30.19398 5786 ft 199 kts 278°
2026-04-20 03:24 -1.97582 30.18077 5508 ft 182 kts 279°
2026-04-20 03:24 -1.97369 30.16869 5221 ft 168 kts 279°
2026-04-20 03:24 -1.97186 30.15754 4981 ft 156 kts 280°
2026-04-20 03:25 -1.97008 30.14753 4879 ft 133 kts 280°
2026-04-20 03:25 -1.96873 30.13970 4885 ft 92 kts 279°
2026-04-20 03:25 -1.96783 30.13479 4889 ft 44 kts 279°
2026-04-20 03:25 -1.96741 30.13357 4885 ft 3 kts 344°
2026-04-20 03:26 -1.96717 30.13354 4883 ft 4 kts
2026-04-20 03:26 -1.96691 30.13357 4887 ft 3 kts 10°
2026-04-20 03:26 -1.96670 30.13361 4887 ft 3 kts 10°
2026-04-20 03:26 -1.96653 30.13364 4887 ft 2 kts 10°
2026-04-20 03:27 -1.96646 30.13365 4888 ft 0 kts 10°
2026-04-20 03:27 -1.96641 30.13366 4888 ft 1 kts 10°
2026-04-20 03:27 -1.96630 30.13371 4884 ft 1 kts 24°
2026-04-20 03:27 -1.96610 30.13397 4890 ft 10 kts 66°
2026-04-20 03:28 -1.96605 30.13475 4884 ft 5 kts 65°
2026-04-20 03:28 -1.96561 30.13503 4890 ft 10 kts 13°
2026-04-20 03:28 -1.96460 30.13501 4890 ft 0 kts
2026-04-20 03:29 -1.96434 30.13460 4886 ft 0 kts 329°